Date String (YYYY-MM-DD hh:mm:ss) UTC,Instrument flags,Ambient pressure (hPa),Sample flow (lpm),Bypass flow (lpm),Sample temperature (°C),Ambient temperature (°C),ASC tube jacket temperature (°C),LED temperature (°C),Box temperature (°C),Sample RH (%),Span deviation,Mass concentration (μg/m³),Mass concentration (μg/m³),Mass concentration (μg/m³)
DateTimeUTC,F1_M11,P_M11,Q1_M11,Q2_M11,T1_M11,T2_M11,T3_M11,T4_M11,T5_M11,U1_M11,ZSPAN_M11,X0_M11,X2_M11,X1_M11
2022-09-15 02:00:00,,0823.2,5.00,0.00,30.3,27.8,00.0,38.9,32.1,26.8,0000.0,0004.21,0002.25,0001.68
2022-09-15 02:01:00,,0823.1,5.00,0.00,30.3,26.9,00.0,38.9,32.0,27.3,0000.0,0004.21,0002.27,0001.71
2022-09-15 02:02:00,,0823.2,5.01,0.00,30.2,26.9,00.0,38.8,31.9,26.8,0000.0,0004.26,0002.29,0001.75
2022-09-15 02:03:00,,0823.1,5.00,0.00,30.1,27.1,00.0,38.8,31.7,27.0,0000.0,0004.32,0002.32,0001.79
2022-09-15 02:04:00,,0823.1,5.00,0.00,30.0,27.4,00.0,38.8,31.7,26.9,0000.0,0003.70,0002.27,0001.81
2022-09-15 02:05:00,,0823.1,5.00,0.00,30.0,27.7,00.0,38.8,31.7,26.7,0000.0,0003.67,0002.26,0001.81
2022-09-15 02:06:00,,0823.1,4.99,0.00,30.0,27.9,00.0,38.7,31.7,26.6,0000.0,0003.70,0002.25,0001.82
2022-09-15 02:07:00,,0823.1,5.00,0.00,30.0,28.1,00.0,38.7,31.7,26.7,0000.0,0003.71,0002.27,0001.82
2022-09-15 02:08:00,,0823.1,5.01,0.00,30.0,28.3,00.0,38.7,31.8,26.6,0000.0,0003.63,0002.25,0001.82
2022-09-15 02:09:00,,0823.1,4.99,0.00,30.0,28.4,00.0,38.7,31.7,26.3,0000.0,0003.52,0002.23,0001.82
2022-09-15 02:10:00,,0823.1,5.01,0.00,30.0,28.5,00.0,38.7,31.8,26.0,0000.0,0003.44,0002.20,0001.80
2022-09-15 02:11:00,,0823.1,4.99,0.00,30.0,28.5,00.0,38.7,31.8,25.8,0000.0,0003.31,0002.14,0001.78
2022-09-15 02:12:00,,0823.1,4.99,0.00,30.0,28.6,00.0,38.8,31.9,25.5,0000.0,0003.26,0002.11,0001.74
2022-09-15 02:13:00,,0823.1,5.01,0.00,30.0,28.7,00.0,38.8,31.9,25.3,0000.0,0003.09,0002.03,0001.69
2022-09-15 02:14:00,,0823.1,4.99,0.00,30.0,28.7,00.0,38.8,31.9,25.5,0000.0,0002.96,0001.96,0001.65
2022-09-15 02:15:00,,0823.1,5.01,0.00,30.1,28.8,00.0,38.8,31.9,26.4,0000.0,0002.76,0001.92,0001.63
2022-09-15 02:16:00,,0823.1,4.99,0.00,30.1,28.8,00.0,38.8,32.0,26.1,0000.0,0002.62,0001.91,0001.60
2022-09-15 02:17:00,,0823.1,5.01,0.00,30.1,28.9,00.0,38.8,32.0,25.5,0000.0,0002.57,0001.87,0001.57
2022-09-15 02:18:00,,0823.1,5.00,0.00,30.1,28.9,00.0,38.8,32.0,25.2,0000.0,0002.45,0001.81,0001.53
2022-09-15 02:19:00,,0823.1,4.99,0.00,30.2,28.9,00.0,38.8,32.0,25.2,0000.0,0002.37,0001.75,0001.50
2022-09-15 02:20:00,,0823.1,5.01,0.00,30.2,29.0,00.0,38.9,32.0,25.1,0000.0,0002.41,0001.70,0001.47
2022-09-15 02:21:00,,0823.1,4.99,0.00,30.2,29.0,00.0,38.9,32.1,25.0,0000.0,0002.36,0001.66,0001.44
2022-09-15 02:22:00,,0823.1,5.00,0.00,30.2,29.0,00.0,38.9,32.1,25.0,0000.0,0002.67,0001.67,0001.43
2022-09-15 02:23:00,,0823.1,5.01,0.00,30.3,29.1,00.0,38.9,32.1,24.8,0000.0,0003.85,0001.66,0001.42
2022-09-15 02:24:00,,0823.1,4.99,0.00,30.3,29.1,00.0,38.9,32.1,24.6,0000.0,0003.85,0001.64,0001.42
2022-09-15 02:25:00,,0823.1,5.01,0.00,30.3,29.1,00.0,39.0,32.2,24.5,0000.0,0003.89,0001.65,0001.41
2022-09-15 02:26:00,,0823.1,4.99,0.00,30.3,29.1,00.0,39.0,32.2,24.5,0000.0,0003.96,0001.66,0001.40
2022-09-15 02:27:00,,0823.1,5.01,0.00,30.3,29.1,00.0,39.0,32.2,24.4,0000.0,0003.94,0001.65,0001.37
2022-09-15 02:28:00,,0823.1,4.99,0.00,30.4,28.2,00.0,39.0,32.2,24.5,0000.0,0004.00,0001.70,0001.38
2022-09-15 02:29:00,,0823.1,5.00,0.00,30.3,27.0,00.0,38.9,32.1,24.5,0000.0,0004.14,0001.75,0001.39
2022-09-15 02:30:00,,0823.0,4.99,0.00,30.3,26.8,00.0,38.9,32.0,24.4,0000.0,0004.09,0001.74,0001.38
2022-09-15 02:31:00,,0823.0,5.00,0.00,30.2,27.0,00.0,38.9,31.8,24.5,0000.0,0003.87,0001.69,0001.37
2022-09-15 02:32:00,,0823.1,5.00,0.00,30.1,27.3,00.0,38.8,31.7,24.5,0000.0,0003.91,0001.70,0001.36
2022-09-15 02:33:00,,0823.0,5.01,0.00,30.1,27.6,00.0,38.8,31.7,25.0,0000.0,0003.61,0001.68,0001.35
2022-09-15 02:34:00,,0823.1,4.99,0.00,30.0,27.9,00.0,38.8,31.7,24.9,0000.0,0002.45,0001.66,0001.34
2022-09-15 02:35:00,,0823.1,5.00,0.00,30.0,28.1,00.0,38.8,31.8,24.9,0000.0,0002.77,0001.65,0001.32
2022-09-15 02:36:00,,0823.1,5.01,0.00,30.0,28.2,00.0,38.8,31.7,25.3,0000.0,0002.75,0001.62,0001.30
2022-09-15 02:37:00,,0823.1,4.99,0.00,30.0,28.3,00.0,38.8,31.7,25.1,0000.0,0002.64,0001.57,0001.29
2022-09-15 02:38:00,,0823.1,5.01,0.00,30.0,28.4,00.0,38.8,31.8,24.9,0000.0,0002.80,0001.57,0001.29
2022-09-15 02:39:00,,0823.1,4.99,0.00,30.0,28.5,00.0,38.8,31.9,24.7,0000.0,0002.68,0001.51,0001.27
2022-09-15 02:40:00,,0823.1,5.00,0.00,30.0,28.6,00.0,38.8,31.9,24.4,0000.0,0002.48,0001.44,0001.24
2022-09-15 02:41:00,,0823.1,4.99,0.00,30.0,28.7,00.0,38.8,31.9,24.2,0000.0,0002.56,0001.44,0001.21
2022-09-15 02:42:00,,0823.1,5.01,0.00,30.1,28.7,00.0,38.8,31.9,24.2,0000.0,0002.55,0001.42,0001.18
2022-09-15 02:43:00,,0823.1,5.00,0.00,30.1,28.8,00.0,38.8,31.9,24.2,0000.0,0002.48,0001.39,0001.16
2022-09-15 02:44:00,,0823.1,4.99,0.00,30.1,28.8,00.0,38.8,32.0,23.9,0000.0,0002.42,0001.36,0001.14
2022-09-15 02:45:00,,0823.1,5.00,0.00,30.1,28.9,00.0,38.8,32.0,24.0,0000.0,0002.56,0001.37,0001.11
2022-09-15 02:46:00,,0823.1,5.01,0.00,30.2,28.9,00.0,38.8,32.0,24.5,0000.0,0002.49,0001.39,0001.09
2022-09-15 02:47:00,,0823.2,4.99,0.00,30.2,28.9,00.0,38.9,32.0,24.8,0000.0,0002.40,0001.38,0001.07
2022-09-15 02:48:00,,0823.2,5.01,0.00,30.2,29.0,00.0,38.9,32.0,25.4,0000.0,0002.42,0001.38,0001.06
2022-09-15 02:49:00,,0823.1,4.99,0.00,30.2,29.0,00.0,38.9,32.1,26.2,0000.0,0002.24,0001.35,0001.06
2022-09-15 02:50:00,,0823.2,4.99,0.00,30.2,29.0,00.0,38.9,32.1,26.9,0000.0,0002.93,0001.44,0001.09
2022-09-15 02:51:00,,0823.1,5.01,0.00,30.3,29.1,00.0,38.9,32.1,27.2,0000.0,0003.15,0001.50,0001.15
2022-09-15 02:52:00,,0823.2,4.98,0.00,30.3,29.1,00.0,38.9,32.1,27.2,0000.0,0003.57,0001.56,0001.20
2022-09-15 02:53:00,,0823.2,5.01,0.00,30.3,29.1,00.0,39.0,32.2,27.2,0000.0,0003.97,0001.70,0001.25
2022-09-15 02:54:00,,0823.2,4.99,0.00,30.3,29.1,00.0,39.0,32.2,26.5,0000.0,0004.25,0001.79,0001.29
2022-09-15 02:55:00,,0823.1,5.01,0.00,30.4,29.1,00.0,39.0,32.2,26.6,0000.0,0004.30,0001.85,0001.34
2022-09-15 02:56:00,,0823.2,4.99,0.00,30.4,29.2,00.0,39.0,32.2,26.8,0000.0,0004.29,0001.88,0001.38
2022-09-15 02:57:00,,0823.2,5.01,0.00,30.4,29.1,00.0,39.0,32.2,26.4,0000.0,0004.17,0001.87,0001.41
2022-09-15 02:58:00,,0823.1,4.99,0.00,30.4,28.1,00.0,39.0,32.2,26.4,0000.0,0004.61,0001.92,0001.44
2022-09-15 02:59:00,,0823.1,5.00,0.00,30.4,27.0,00.0,39.0,32.1,26.5,0000.0,0004.96,0001.94,0001.46
